STARLINK-32878, 62892

Orbit data source: Space-Track

STARLINK-32878, 62892 is a payload satellite owned by SpaceX/Seattle (US) in LEO that was launched on Tue, 04 Feb 2025 UTC via an FALCON 9 launch vehicle from the Air Force Eastern Test Range (AFETR). Payload-class satellites include a variety of spacecraft equipped with specific instruments for various scientific and technological missions. These include communications satellites like Starlink; space stations such as the ISS; scientific satellites like the Hubble; Earth observation satellites from companies like Planet Labs, Umbra, and HawkEye 360; GPS; miniature CubeSats for education and research; and military/defense satellites.

Loading next visibility...
Identifier
62892, 2025-024P
Orbit
LEO
Country
Flag of USUS
Related business
Manufacturer
SpaceX/Seattle
Mission
Operational Commercial Communications
Bus & Motor
STARLINK V2M, Unknown motor
Mass
730 kg wet, ~700 kg dry
Launch date (UTC)
2025-02-04 (9 months ago)
Launch vehicle
FALCON 9
Launch site
Air Force Eastern Test Range (AFETR)
Object type
Payload
Rocket body
Debris
Shape & HBR
Box + 2 Pan, 17.7 m
Radar Cross Section
33.884 m², Large (>1 m²)

Expand to show TLE details & history
Last TLE update: 12 hours ago

TLE from 12 hours ago
0 STARLINK-32878
1 62892U 25024P   25303.17314044  .00032582  00000-0  11884-2 0  9991
2 62892  43.0030 342.5839 0001366 254.5057 105.5644 15.27578526 42309
Epoch: 2025-10-30T04:09Z
TLE epoch observation values (Epoch: 2025-10-30T04:09:19.334Z)
Latitude
0.00001°
Longitude
-118.48238°
Altitude
483.081 km
Speed
7.626 km/s
True Right ascension
22h 50m 20s
True Declination
0° 00' 00"
Sunlit
Object was in full shadow at epoch
Visualization orbit readout
Latitude
Unknown
Longitude
Unknown
Altitude
Unknown
Speed
Unknown
Apparent Right ascension
Unknown
Apparent Declination
Unknown
Sunlit
N/A
Visualization observer readout
Local Sidereal Time
11:32:56
Azimuth
Unknown
Elevation
Unknown
Doppler factor
Unknown
Orbital elements
Apogee altitude
485.936 km
Perigee altitude
484.061 km
Semi-major axis
6,863.135 km
Eccentricity
0.00014
Inclination
43.003°
RAAN
342.5839°
Arg. of periapsis
254.5057°
True anomaly
105.57948°
Mean anomaly
105.5644°
Eccentric anomaly
105.57194°
Mean motion
3.81733 °/min
Orbital period
94.31 mins
BSTAR
0.0011884
Loading maneuver chart data...
Computing Atmospheric mass density...
Loading historical data...
Loading historical data...
Loading historical data...
Loading historical data...
Loading historical data...
Loading historical data...
Loading historical data...

Documentation

Showing up to 5 results
|